User: anonymous   Login
Location: Fort Hays State University
(38.8712°N, 99.3432°W)
Time: 14:16:48
(UTC-06:00)
Language:

ALOS - Orbit

View from above orbital plane
View from above orbital plane
View from above satellite
View from above satellite

Ground track
Ground track

The orbit data is extracted from the following two-line orbital elements,

1 28931U 06002A   15062.86666804  .00000994  00000-0  20860-3 0  9990
2 28931 097.9482 116.4183 0002389 088.7389 271.4086 14.61703621485256
Epoch (UTC): 03 March 2015 20:48:00
Eccentricity: 0.0002389
inclination: 97.9482°
perigee height: 686 km
apogee height: 689 km
right ascension of ascending node: 116.4183°
argument of perigee: 88.7389°
revolutions per day: 14.61703621
mean anomaly at epoch: 271.4086°
orbit number at epoch: 48525

The dashed part of the orbit path shows where the satellite is in the earth's shadow,  

DLR